Station PACF1 - 8729108 - Panama City, FL Image indicating link to RSS feed of recent meteorological observations for station PACF1


Conditions at PACF1 as of
(9:48 am CDT)
1448 GMT on 09/06/2026:
     

Click on the graph icon in the table below to see a time series plot of the last five days of that observation.

5-day plot - Wind Direction Wind Direction (WDIR):WNW ( 290 deg true )
5-day plot - Wind Speed Wind Speed (WSPD): 2.9 kts
5-day plot - Wind Gust Wind Gust (GST): 5.1 kts
5-day plot - Water Temperature Water Temperature (WTMP): 86.5 °F
5-day plot - Wind Speed at 10 Meters Wind Speed at 10 meters (WSPD10M): 3.9 kts
5-day plot - Wind Speed at 20 Meters Wind Speed at 20 meters (WSPD20M): 3.9 kts
5-day plot -  Wind Speed, Wind Gust and Atmospheric Pressure Combined plot of Wind Speed, Gust, and Air Pressure
NOS Water Level Observation Network Water Level
Previous observations
TIME
(CDT)
5-day plot - Wind Direction
WDIR
 
5-day plot - Wind Speed
WSPD
kts
5-day plot - Wind Gust
GST
kts
5-day plot - Wave Height
WVHT
ft
5-day plot - Dominant Wave Period
DPD
sec
5-day plot - Average Wave Period
APD
sec
5-day plot - Mean Wave Direction
MWD
 
5-day plot - Atmospheric Pressure
PRES
in
5-day plot - Pressure Tendency
PTDY
in
5-day plot - Air Temperature
ATMP
°F
5-day plot - Water Temperature
WTMP
°F
5-day plot - Dew Point
DEWP
°F
5-day plot - Salinity
SAL
psu
5-day plot - Visibility
VIS
nmi
5-day plot - Tide (above MLLW)
TIDE
ft
2026-09-06 09:42 amWNW 5.1 6.0------- 86.5----
2026-09-06 09:36 am NW 5.1 6.0------- 86.5----
2026-09-06 09:30 amNNW 2.9 5.1------- 86.5----
2026-09-06 09:24 amNNW 2.9 6.0------- 86.5----
2026-09-06 09:18 am NW 2.9 6.0------- 86.4----
2026-09-06 09:12 am NW 1.9 5.1------- 86.4----
2026-09-06 09:06 amNNW 2.9 5.1------- 86.4----
2026-09-06 09:00 amNNW 2.9 4.1------- 86.4----
2026-09-06 08:54 amNNW 2.9 4.1------- 86.4----
2026-09-06 08:48 am NW 1.9 5.1------- 86.2----
2026-09-06 08:42 am NW 4.1 5.1------- 86.2----
2026-09-06 08:36 am NW 2.9 5.1------- 86.2----
2026-09-06 08:30 am N 4.1 5.1------- 86.2----
2026-09-06 08:24 amNNW 2.9 5.1------- 86.2----
2026-09-06 08:18 am N 1.9 4.1------- 86.0----
2026-09-06 08:12 am N 1.9 5.1------- 86.0----
2026-09-06 08:06 amNNE 4.1 5.1------- 86.0----
2026-09-06 08:00 am N 4.1 5.1------- 86.0----
2026-09-06 07:54 amNNE 2.9 4.1------- 86.2----
2026-09-06 07:48 amNNE 1.0 2.9------- 86.2----
2026-09-06 07:42 am- 0.0 1.0------- 86.4----
2026-09-06 07:36 am- 0.0 1.9------- 86.2----
2026-09-06 07:30 am E 1.0 1.9------- 86.2----
2026-09-06 07:24 am- 0.0 2.9------- 86.2----
2026-09-06 07:18 am E 2.9 2.9------- 86.2----
2026-09-06 07:12 am E 1.9 2.9------- 86.2----
2026-09-06 07:06 am- 0.0 1.9------- 86.4----
2026-09-06 07:00 amNNE 1.9 4.1------- 86.4----
2026-09-06 06:54 am N 2.9 4.1------- 86.4----
2026-09-06 06:48 am N 1.0 1.9------- 86.2----
2026-09-06 06:42 amNNE 1.9 2.9------- 86.4----
2026-09-06 06:36 amENE 1.9 2.9------- 86.5----
2026-09-06 06:30 amENE 1.9 2.9------- 86.4----
2026-09-06 06:24 am- 0.0 1.0------- 86.5----
2026-09-06 06:18 amNNE 1.0 1.9------- 86.4----
2026-09-06 06:12 amNNE 1.9 2.9------- 86.7----
2026-09-06 06:06 am NE 1.9 4.1------- 86.7----
2026-09-06 06:00 amENE 4.1 4.1------- 86.7----
2026-09-06 05:54 am NE 1.9 5.1------- 86.7----
2026-09-06 05:48 am NE 2.9 5.1------- 86.7----
2026-09-06 05:42 am NE 4.1 5.1------- 86.7----
2026-09-06 05:36 am NE 2.9 4.1------- 86.7----
2026-09-06 05:30 am NE 1.9 4.1------- 86.7----
2026-09-06 05:24 am NE 2.9 5.1------- 86.7----
2026-09-06 05:18 am NE 4.1 5.1------- 86.7----
2026-09-06 05:12 amNNE 5.1 6.0------- 86.7----
2026-09-06 05:06 amNNE 4.1 5.1------- 86.7----
2026-09-06 05:00 amNNE 2.9 6.0------- 86.9----
2026-09-06 04:54 am NE 5.1 7.0------- 86.9----
2026-09-06 04:48 amNNE 2.9 6.0------- 86.9----
2026-09-06 04:42 am NE 4.1 5.1------- 86.9----
2026-09-06 04:36 amNNE 2.9 4.1------- 86.9----
2026-09-06 04:30 amNNE 2.9 4.1------- 86.9----
2026-09-06 04:24 am NE 2.9 4.1------- 86.9----
2026-09-06 04:18 amNNE 2.9 2.9------- 86.9----
2026-09-06 04:12 amNNE 2.9 4.1------- 86.9----
2026-09-06 04:06 amNNE 4.1 5.1------- 86.9----
2026-09-06 04:00 am N 2.9 5.1------- 86.9----
2026-09-06 03:54 am N 2.9 5.1------- 86.9----
2026-09-06 03:48 am N 4.1 5.1------- 86.9----
2026-09-06 03:42 amNNW 2.9 4.1------- 86.9----
2026-09-06 03:36 amNNW 2.9 4.1------- 86.9----
2026-09-06 03:30 amNNW 1.9 4.1------- 86.9----
2026-09-06 03:24 am N 2.9 4.1------- 86.9----
2026-09-06 03:18 am N 2.9 4.1------- 86.9----
2026-09-06 03:12 amNNW 2.9 4.1------- 86.9----
2026-09-06 03:06 amNNW 2.9 4.1------- 86.9----
2026-09-06 03:00 amNNW 2.9 4.1------- 86.9----
2026-09-06 02:54 amNNW 4.1 4.1------- 86.9----
2026-09-06 02:48 amNNW 2.9 4.1------- 86.9----
2026-09-06 02:42 am N 2.9 6.0------- 86.9----
2026-09-06 02:36 am NW 5.1 7.0------- 86.9----
2026-09-06 02:30 amWNW 6.0 7.0------- 86.9----
2026-09-06 02:24 amWNW 6.0 7.0------- 86.9----
2026-09-06 02:18 amWNW 6.0 8.9------- 86.9----
2026-09-06 02:12 amWNW 8.0 8.9------- 87.1----
2026-09-06 02:06 amWNW 7.0 8.9------- 87.1----
2026-09-06 02:00 amWNW 7.0 8.9------- 87.1----
2026-09-06 01:54 amWNW 7.0 8.9------- 87.1----
2026-09-06 01:48 amWNW 8.0 8.9------- 87.1----
2026-09-06 01:42 amWNW 7.0 8.9------- 87.1----
2026-09-06 01:36 am W 8.9 11.1------- 87.1----
2026-09-06 01:30 am W 9.9 12.0------- 87.3----
2026-09-06 01:24 am W 8.9 11.1------- 87.3----
2026-09-06 01:18 am W 9.9 11.1------- 87.3----
2026-09-06 01:12 am W 8.9 9.9------- 87.3----
2026-09-06 01:06 am W 8.9 11.1------- 87.3----
2026-09-06 01:00 am W 8.9 9.9------- 87.3----
2026-09-06 12:54 am W 8.9 9.9------- 87.3----
2026-09-06 12:48 am W 8.0 9.9------- 87.3----
2026-09-06 12:42 am W 8.9 9.9------- 87.3----
2026-09-06 12:36 am W 8.9 9.9------- 87.3----
2026-09-06 12:30 am W 8.9 11.1------- 87.3----
2026-09-06 12:24 am W 8.9 11.1------- 87.4----
2026-09-06 12:18 am W 8.9 9.9------- 87.4----
2026-09-06 12:12 am W 8.0 8.9------- 87.4----
2026-09-06 12:06 am W 8.0 8.9------- 87.4----
2026-09-06 12:00 am W 8.0 8.9------- 87.4----
2026-09-05 11:54 pm W 8.0 8.9------- 87.4----
2026-09-05 11:48 pm W 8.0 9.9------- 87.4----
2026-09-05 11:42 pm W 8.9 9.9------- 87.4----
2026-09-05 11:36 pm W 8.0 8.9------- 87.4----
2026-09-05 11:30 pm W 7.0 8.9------- 87.4----
2026-09-05 11:24 pm W 8.0 8.9------- 87.4----
2026-09-05 11:18 pm W 8.9 9.9------- 87.4----
2026-09-05 11:12 pm W 8.0 8.9------- 87.4----
2026-09-05 11:06 pm W 8.0 8.9------- 87.4----
2026-09-05 11:00 pm W 8.9 9.9------- 87.4----
2026-09-05 10:54 pm W 8.0 8.9------- 87.4----
2026-09-05 10:48 pm W 7.0 8.0------- 87.6----
2026-09-05 10:42 pm W 7.0 8.9------- 87.4----
2026-09-05 10:36 pm W 8.0 8.9------- 87.6----
2026-09-05 10:30 pm W 8.0 8.9------- 87.6----
2026-09-05 10:24 pm W 8.9 9.9------- 87.6----
2026-09-05 10:18 pm---------- 87.6----
2026-09-05 10:12 pm---------- 87.6----
2026-09-05 10:06 pm---------- 87.6----
2026-09-05 10:00 pm W 8.0 8.9------- 87.6----
2026-09-05 09:54 pm W 8.0 8.9------- 87.6----
2026-09-05 09:48 pm W 8.0 9.9------- 87.8----
2026-09-05 09:42 pm W 8.9 9.9------- 87.8----
2026-09-05 09:36 pm W 8.0 8.9------- 87.8----
2026-09-05 09:30 pm W 8.0 11.1------- 87.8----
2026-09-05 09:24 pm W 8.0 8.9------- 87.8----
2026-09-05 09:18 pm W 7.0 8.9------- 87.8----
2026-09-05 09:12 pmWSW 7.0 8.9------- 87.8----
2026-09-05 09:06 pmWSW 8.0 8.9------- 87.8----
2026-09-05 09:00 pm W 8.0 8.9------- 88.0----
2026-09-05 08:54 pm W 8.9 9.9------- 87.8----
2026-09-05 08:48 pmWSW 9.9 12.0------- 87.8----
2026-09-05 08:42 pmWSW 8.9 11.1------- 88.0----
2026-09-05 08:36 pmWSW 8.0 8.9------- 88.0----
2026-09-05 08:30 pmWSW 8.9 9.9------- 88.2----
2026-09-05 08:24 pmWSW 8.0 8.9------- 88.0----
2026-09-05 08:18 pmWSW 8.0 9.9------- 88.2----
2026-09-05 08:12 pmWSW 8.0 11.1------- 88.2----
2026-09-05 08:06 pmWSW 9.9 11.1------- 88.2----
2026-09-05 08:00 pmWSW 8.0 9.9------- 88.2----
2026-09-05 07:54 pm W 8.0 9.9------- 88.2----
2026-09-05 07:48 pmWSW 8.0 9.9------- 88.2----
2026-09-05 07:42 pm W 8.9 9.9------- 88.2----
2026-09-05 07:36 pmWSW 8.0 8.9------- 88.0----
2026-09-05 07:30 pm---------- 88.0----
2026-09-05 07:24 pm---------- 87.8----
2026-09-05 07:18 pm W 7.0 8.0------- 88.0----
2026-09-05 07:12 pm W 7.0 8.0------- 87.8----
2026-09-05 07:06 pm W 7.0 8.9------- 87.8----
2026-09-05 07:00 pm W 8.0 8.9------- 87.8----
2026-09-05 06:54 pm W 8.0 8.9------- 87.8----
2026-09-05 06:48 pm W 8.0 9.9------- 87.8----
2026-09-05 06:42 pmWSW 7.0 8.9------- 87.8----
2026-09-05 06:36 pmWSW 8.0 8.9------- 87.8----
2026-09-05 06:30 pm W 7.0 9.9------- 87.8----
2026-09-05 06:24 pm W 8.0 9.9------- 87.8----
2026-09-05 06:18 pmWSW 8.0 9.9------- 87.8----
2026-09-05 06:12 pm W 8.9 9.9------- 87.8----
2026-09-05 06:06 pm W 8.0 9.9------- 87.8----
2026-09-05 06:00 pmWSW 8.0 9.9------- 87.8----
2026-09-05 05:54 pm W 7.0 8.9------- 87.8----
2026-09-05 05:48 pm W 8.0 8.9------- 88.2----
2026-09-05 05:42 pm W 7.0 9.9------- 88.2----
2026-09-05 05:36 pmWSW 7.0 9.9------- 88.2----
2026-09-05 05:30 pm W 8.9 11.1------- 88.2----
2026-09-05 05:24 pmWSW 8.0 9.9------- 88.2----
2026-09-05 05:18 pm W 8.9 9.9------- 88.2----
2026-09-05 05:12 pmWSW 6.0 8.0------- 88.2----
2026-09-05 05:06 pmWSW 7.0 9.9------- 88.2----
2026-09-05 05:00 pmWSW 8.9 11.1------- 88.2----
2026-09-05 04:54 pmWSW 8.0 11.1------- 88.2----
2026-09-05 04:48 pmWSW 8.9 9.9------- 88.0----
2026-09-05 04:42 pmWSW 8.9 9.9------- 88.0----
2026-09-05 04:36 pmWSW 8.0 9.9------- 88.0----
2026-09-05 04:30 pm W 8.9 9.9------- 88.2----
2026-09-05 04:24 pmWSW 8.0 9.9------- 88.2----
2026-09-05 04:18 pmWSW 8.9 8.9------- 88.2----
2026-09-05 04:12 pm W 8.0 9.9------- 88.2----
2026-09-05 04:06 pmWSW 8.0 9.9------- 88.2----
2026-09-05 04:00 pmWSW 8.0 9.9------- 88.2----
2026-09-05 03:54 pmWSW 8.0 11.1------- 88.2----
2026-09-05 03:48 pmWSW 8.0 9.9------- 88.0----
2026-09-05 03:42 pm W 7.0 8.9------- 88.0----
2026-09-05 03:36 pm W 7.0 8.0------- 88.0----
2026-09-05 03:30 pm W 8.0 8.9------- 88.0----
2026-09-05 03:24 pm W 8.0 8.9------- 88.0----
2026-09-05 03:18 pmWSW 8.9 9.9------- 88.0----
2026-09-05 03:12 pm W 8.9 9.9------- 88.0----
2026-09-05 03:06 pm W 8.9 11.1------- 88.0----
2026-09-05 03:00 pm W 8.9 9.9------- 88.0----
2026-09-05 02:54 pm W 8.0 8.9------- 87.8----
2026-09-05 02:48 pm W 6.0 8.9------- 87.8----
2026-09-05 02:42 pmWSW 8.0 9.9------- 87.8----
2026-09-05 02:36 pmWSW 8.9 9.9------- 87.6----
2026-09-05 02:30 pmWSW 8.9 9.9------- 87.6----
2026-09-05 02:24 pm W 8.0 9.9------- 87.6----
2026-09-05 02:18 pm W 8.9 9.9------- 87.6----
2026-09-05 02:12 pm W 8.0 8.9------- 87.6----
2026-09-05 02:06 pm W 8.9 9.9------- 87.6----
2026-09-05 02:00 pmWSW 8.0 8.9------- 87.6----
2026-09-05 01:54 pm W 8.0 8.0------- 87.6----
2026-09-05 01:48 pm W 7.0 8.0------- 87.6----
2026-09-05 01:42 pm W 8.0 8.9------- 87.6----
2026-09-05 01:36 pm W 9.9 11.1------- 87.6----
2026-09-05 01:30 pmWSW 11.1 11.1------- 87.4----
2026-09-05 01:24 pm W 8.9 9.9------- 87.4----
2026-09-05 01:18 pmWSW 8.0 9.9------- 87.4----
2026-09-05 01:12 pm W 8.0 8.9------- 87.4----
2026-09-05 01:06 pm W 8.0 9.9------- 87.3----
2026-09-05 01:00 pmWSW 8.9 9.9------- 87.3----
2026-09-05 12:54 pmWSW 6.0 8.0------- 87.3----
2026-09-05 12:48 pm W 7.0 8.0------- 87.3----
2026-09-05 12:42 pmWSW 5.1 6.0------- 87.1----
2026-09-05 12:36 pm W 4.1 4.1------- 87.1----
2026-09-05 12:30 pmWSW 2.9 4.1------- 87.1----
2026-09-05 12:24 pm W 2.9 4.1------- 86.9----
2026-09-05 12:18 pm W 4.1 5.1------- 86.9----
2026-09-05 12:12 pm W 5.1 5.1------- 86.9----
2026-09-05 12:06 pm W 6.0 7.0------- 86.7----
2026-09-05 12:00 pmWNW 7.0 8.0------- 86.7----
2026-09-05 11:54 amWNW 7.0 8.0------- 86.7----
2026-09-05 11:48 amWNW 6.0 8.0------- 86.7----
2026-09-05 11:42 amWNW 6.0 8.0------- 86.7----
2026-09-05 11:36 amWNW 6.0 8.0------- 86.7----
2026-09-05 11:30 am---------- 86.7----
2026-09-05 11:24 am---------- 86.7----
2026-09-05 11:18 am W 9.9 12.0------- 86.7----
2026-09-05 11:12 am W 4.1 6.0------- 86.5----
2026-09-05 11:06 amWNW 4.1 4.1------- 86.5----
2026-09-05 11:00 am W 2.9 5.1------- 86.5----
2026-09-05 10:54 amWNW 5.1 5.1------- 86.5----
2026-09-05 10:48 am W 4.1 5.1------- 86.5----
2026-09-05 10:42 amWSW 4.1 5.1------- 86.5----
2026-09-05 10:36 am W 2.9 6.0------- 86.7----
2026-09-05 10:30 amWSW 8.0 11.1------- 86.5----
2026-09-05 10:24 am W 5.1 5.1------- 86.5----
2026-09-05 10:18 am W 2.9 4.1------- 86.5----
2026-09-05 10:12 am W 2.9 2.9------- 86.5----
2026-09-05 10:06 am W 2.9 2.9------- 86.5----
2026-09-05 10:00 amWSW 1.0 2.9------- 86.4----
2026-09-05 09:54 am W 2.9 2.9------- 86.2----